Weather History for Dayton, OH

Change the Weather History Date:

Saturday, June 15, 2013

  Actual Average Record
Temperature  
Mean Temperature 70 °F 71 °F  
Max Temperature 81 °F 80 °F 96 °F (1994)
Min Temperature 59 °F 61 °F 47 °F (1933)
Degree Days  
Heating Degree Days 0 1  
Month to date heating degree days 11 21  
Since 1 June heating degree days 11 21  
Since 1 July heating degree days 5457 5641  
Cooling Degree Days 5 6  
Month to date cooling degree days 67 74  
Year to date cooling degree days 198 144  
Since 1 June cooling degree days 67 74  
Growing Degree Days 20 (Base 50)    
Moisture  
Dew Point 58 °F    
Average Humidity 66    
Maximum Humidity 87    
Minimum Humidity 45    
Precipitation  
Precipitation 0.00 in 0.14 in 1.26 in (1949)
Month to date precipitation 2.09 2.10  
Year to date precipitation 16.39 19.14  
Snow  
Snow 0.00 in 0.00 in 0.00 in ()
Month to date snowfall 0.0 0.0  
Since 1 June snowfall 0.0 0.0  
Since 1 July snowfall 36.3 23.3  
Snow Depth 0.00 in    
Sea Level Pressure  
Sea Level Pressure 30.05 in    
Wind  
Wind Speed 6 mph (South)    
Max Wind Speed 14 mph    
Max Gust Speed 17 mph    
Visibility 10 miles    
Events      
T = Trace of Precipitation, MM = Missing Value Source: NWS Daily Summary

Daily Weather History Graph

Daily Weather History Graph

Search for Another Location

Airport:

Trip Planner

Search our weather history database for the weather conditions in past years. The results will help you decide how hot, cold, wet, or windy it might be!

Date:

Astronomy

Jun. 15, 2013 Rise Set
Actual Time 6:07 AM EDT 9:07 PM EDT
Civil Twilight 5:35 AM EDT 9:40 PM EDT
Nautical Twilight 4:53 AM EDT 10:21 PM EDT
Astronomical Twilight 4:05 AM EDT 11:09 PM EDT
Moon 12:41 PM EDT (6/15) 12:42 AM EDT (6/15)
Length of Visible Light 16h 04m
Length of Day
14h 59m
Waxing Crescent, 39% of the Moon is Illuminated
Jun 15
Waxing Crescent
Jun 16
First Quarter
Jun 23
Full
Jun 30
Last Quarter
Jul 8
New

Hourly Weather History & Observations

Time (EDT) Temp. Heat Index Dew Point Humidity Pressure Visibility Wind Dir Wind Speed Gust Speed Precip Events Conditions
12:56 AM 63.0 °F - 55.0 °F 75% 30.07 in 10.0 mi ESE 5.8 mph - N/A   Clear
1:56 AM 63.0 °F - 55.9 °F 78% 30.06 in 10.0 mi ESE 8.1 mph - N/A   Clear
2:56 AM 63.0 °F - 55.0 °F 75% 30.06 in 10.0 mi South 4.6 mph - N/A   Clear
3:56 AM 59.0 °F - 55.0 °F 87% 30.09 in 10.0 mi Calm Calm - N/A   Clear
4:56 AM 62.1 °F - 55.0 °F 78% 30.09 in 10.0 mi South 3.5 mph - N/A   Clear
5:56 AM 61.0 °F - 55.0 °F 81% 30.10 in 10.0 mi Calm Calm - N/A   Scattered Clouds
6:56 AM 61.0 °F - 55.9 °F 83% 30.12 in 9.0 mi South 4.6 mph - N/A   Mostly Cloudy
7:56 AM 63.0 °F - 57.9 °F 84% 30.13 in 10.0 mi Calm Calm - N/A   Mostly Cloudy
8:56 AM 68.0 °F - 59.0 °F 73% 30.13 in 10.0 mi SSW 5.8 mph - N/A   Scattered Clouds
9:56 AM 71.1 °F - 57.9 °F 63% 30.13 in 10.0 mi SSW 8.1 mph - N/A   Mostly Cloudy
10:56 AM 73.9 °F - 59.0 °F 59% 30.11 in 10.0 mi SSW 6.9 mph - N/A   Mostly Cloudy
11:56 AM 75.9 °F - 60.1 °F 58% 30.09 in 10.0 mi SSW 8.1 mph - N/A   Mostly Cloudy
12:56 PM 78.1 °F - 59.0 °F 52% 30.05 in 10.0 mi SSW 10.4 mph - N/A   Scattered Clouds
1:56 PM 79.0 °F - 59.0 °F 50% 30.04 in 10.0 mi SSE 13.8 mph 17.3 mph N/A   Mostly Cloudy
2:56 PM 78.1 °F - 59.0 °F 52% 30.05 in 10.0 mi SW 10.4 mph - N/A   Overcast
3:56 PM 78.1 °F - 59.0 °F 52% 30.05 in 10.0 mi SW 6.9 mph - N/A   Mostly Cloudy
4:56 PM 81.0 °F 81.3 °F 59.0 °F 47% 30.04 in 10.0 mi SW 8.1 mph - N/A   Mostly Cloudy
5:56 PM 80.1 °F 80.6 °F 57.9 °F 47% 30.02 in 10.0 mi SW 10.4 mph - N/A   Mostly Cloudy
6:56 PM 78.1 °F - 57.9 °F 50% 30.00 in 10.0 mi SSW 6.9 mph - N/A   Overcast
7:56 PM 78.1 °F - 59.0 °F 52% 29.97 in 10.0 mi South 6.9 mph - N/A   Overcast
8:56 PM 77.0 °F - 59.0 °F 54% 29.96 in 10.0 mi South 5.8 mph - N/A   Mostly Cloudy
9:56 PM 75.9 °F - 60.1 °F 58% 29.97 in 10.0 mi South 4.6 mph - N/A   Mostly Cloudy
10:56 PM 75.0 °F - 61.0 °F 62% 29.99 in 10.0 mi SSW 5.8 mph - N/A   Overcast
11:56 PM 73.0 °F - 62.1 °F 68% 29.98 in 10.0 mi South 5.8 mph - N/A   Scattered Clouds